Snowfall_Accumulation
2.5 2.8 2.9 3.2 3.4 3.6 4.4 4.1 4.5 4.0 4.3 4.7 4.7 4.7 4.8 5.0 5.2 5.6 5.6 5.6 5.9 5.8 6.9 7.4 7.5 7.1 6.4 6.0 6.9 6.6 6.1 6.1 6.1 6.0 6.3 6.4 6.9 8.1 7.6 8.7 12.3 13.5 9.7 4.3 2.5 2.3 2.7 2.2 1.5 2.0 1.6 2.5 2.8 2.8 2.3 1.7 1.7 1.9 2.1 2.2 2.4 2.8 2.7
3.0 3.1 3.2 3.4 3.5 3.5 3.8 4.7 4.9 4.7 5.1 5.4 5.2 5.2 5.1 5.8 6.5 6.3 6.4 6.1 6.6 6.0 6.2 6.9 7.7 7.4 6.9 6.6 7.9 7.8 7.7 7.3 6.8 7.0 7.2 6.9 7.3 8.2 8.1 7.2 10.4 11.9 10.3 8.6 4.0 3.2 2.3 2.6 1.5 2.4 1.4 2.3 2.5 3.1 2.9 3.0 2.6 2.3 2.2 2.4 2.4 2.7 2.9
3.3 3.4 3.5 3.5 3.4 3.4 3.8 3.8 4.2 3.9 4.8 5.4 5.5 5.6 5.4 5.4 5.8 6.3 6.6 6.5 6.4 6.1 6.0 7.0 7.5 7.6 6.9 6.8 8.4 8.3 8.3 7.7 7.9 7.3 7.5 7.5 6.5 7.3 7.0 6.9 8.0 10.7 11.8 9.1 7.0 3.9 3.8 3.3 2.5 2.6 2.5 2.1 2.4 2.5 2.3 3.3 3.6 3.3 3.1 2.8 2.7 3.0 3.0
3.5 3.7 3.6 3.9 4.0 4.3 3.9 3.9 3.7 3.9 4.3 4.6 4.6 5.2 5.6 5.2 5.2 5.6 6.1 6.5 6.4 6.4 6.9 7.6 8.2 8.1 7.6 8.0 9.0 8.9 8.7 8.8 8.8 9.0 8.8 8.3 7.2 6.9 6.7 6.1 6.4 7.4 9.9 9.1 8.8 5.7 4.8 3.7 3.4 2.7 2.1 2.2 2.2 3.1 3.7 3.5 3.7 3.5 3.8 3.4 3.3 3.4 3.9
3.7 3.9 4.1 4.2 4.0 3.8 3.7 3.8 3.7 3.9 4.0 3.9 3.9 4.3 4.5 4.9 5.3 5.4 5.7 5.7 6.1 6.6 7.2 7.5 7.8 7.4 7.4 8.1 9.7 9.4 9.6 9.6 10.1 10.3 10.5 10.8 9.5 9.3 8.5 7.9 7.6 7.9 7.9 10.0 10.0 7.4 4.5 3.6 3.4 2.9 2.9 2.6 3.6 3.9 4.2 4.1 4.6 4.6 5.0 4.6 4.2 3.8 4.0
4.3 4.3 4.1 4.0 3.9 3.9 4.2 3.9 4.0 4.2 4.7 4.1 3.7 3.7 3.9 4.1 4.3 4.4 4.7 5.0 5.3 5.6 6.2 6.9 7.0 6.9 7.2 7.8 9.2 9.6 9.0 9.9 11.2 11.2 11.5 11.8 11.8 11.8 11.1 11.4 11.0 10.1 10.6 10.8 10.4 8.4 7.1 4.2 4.2 4.0 3.9 3.5 3.9 4.4 5.0 5.8 5.7 4.9 5.5 6.1 6.7 6.0 5.3
4.6 4.4 4.3 4.1 4.0 4.1 4.1 4.0 3.9 4.1 4.2 4.1 4.0 4.2 4.4 4.5 4.4 4.3 4.2 4.4 4.4 4.2 4.5 5.0 5.4 5.9 6.2 7.3 7.9 8.6 8.6 8.9 9.0 10.2 11.2 11.4 11.9 11.5 12.8 14.8 14.9 13.9 13.5 13.2 12.8 11.1 8.3 7.1 5.0 4.2 5.1 3.6 3.1 3.5 4.0 5.6 6.8 7.8 6.4 6.2 6.3 6.8 6.0
4.7 4.2 4.1 4.2 4.2 3.9 3.9 4.0 4.0 4.0 4.4 4.5 4.4 4.7 5.1 5.0 5.7 5.8 5.3 4.6 4.1 4.1 4.4 4.3 4.3 4.5 4.5 4.9 5.3 6.1 6.4 7.0 8.7 9.1 10.7 9.9 10.4 11.6 13.9 15.5 14.9 14.8 15.0 15.4 14.7 13.2 10.9 8.0 6.8 5.3 4.3 4.0 4.3 5.2 5.2 4.8 5.9 8.0 7.5 7.3 6.7 6.5 7.1
4.8 4.7 4.8 4.2 4.1 4.4 3.9 4.3 4.2 4.3 5.4 5.5 5.4 6.1 7.8 7.8 8.0 7.5 7.1 6.5 6.0 5.3 4.8 4.5 4.4 4.1 4.4 4.0 3.9 4.1 4.7 5.5 6.7 8.7 10.8 10.2 10.3 12.4 14.2 15.6 15.6 16.2 16.4 16.2 15.2 14.2 10.2 9.6 8.3 7.0 6.3 5.9 6.3 7.3 7.5 5.3 5.0 6.6 5.7 5.6 6.1 6.7 6.5
4.9 5.3 6.7 5.1 4.7 4.5 5.0 4.7 4.4 4.5 6.4 6.2 9.7 12.3 13.5 13.8 13.4 12.7 12.3 11.6 10.2 8.4 6.9 6.0 5.3 4.5 3.7 3.7 3.9 4.4 4.9 5.9 6.8 7.5 8.9 11.1 11.7 13.0 15.0 16.3 17.1 16.7 15.6 15.7 16.9 15.0 12.0 12.0 10.3 7.9 6.8 6.3 5.4 4.5 4.0 4.6 5.3 6.6 5.7 5.0 6.0 6.0 7.2
6.4 6.0 5.9 5.6 5.7 6.1 5.8 5.6 4.9 4.8 7.6 11.4 14.7 17.4 19.5 19.2 17.2 14.6 13.3 12.1 11.1 9.9 7.5 6.1 5.2 4.9 4.4 4.3 4.4 4.8 5.2 6.0 6.4 7.6 8.6 9.0 9.9 11.8 15.8 19.9 21.3 19.5 16.4 16.9 16.5 13.2 11.7 11.4 10.0 7.4 6.6 6.5 5.8 4.9 5.4 5.5 5.5 6.8 6.6 8.0 8.7 9.8 7.4
7.4 6.1 5.8 6.0 6.2 6.5 6.2 6.2 5.1 5.8 11.2 13.8 18.3 23.8 24.7 22.6 20.4 17.5 15.2 13.2 12.2 10.6 9.3 8.1 7.0 6.3 5.7 5.6 5.4 5.6 5.9 6.6 6.9 7.6 7.9 8.7 10.0 11.3 13.6 16.9 18.0 20.2 19.9 17.8 17.9 16.8 13.9 12.1 10.3 7.5 6.3 6.3 6.4 7.1 6.5 6.3 7.0 8.1 9.1 9.3 9.4 8.5 8.3
7.0 6.9 6.9 7.1 8.0 7.4 6.8 6.8 5.6 7.2 11.9 15.2 21.2 26.3 29.6 25.3 21.5 18.9 15.6 12.9 11.4 10.4 9.3 8.5 8.8 8.2 7.2 6.1 5.1 5.6 5.7 6.2 6.4 6.2 6.8 7.8 8.5 9.0 11.1 15.5 20.6 19.8 17.4 19.2 20.3 20.0 16.2 11.9 10.6 10.3 7.4 5.8 6.7 7.4 9.4 8.3 9.6 9.5 9.5 9.7 9.7 8.2 6.4
8.2 8.1 8.7 9.1 9.6 9.3 8.9 8.3 7.1 8.0 13.5 19.4 23.5 28.7 33.8 27.9 23.7 19.5 16.2 13.4 11.4 9.9 8.9 8.2 8.3 8.6 7.9 6.4 5.8 5.9 6.1 6.2 6.7 6.9 7.2 8.2 8.9 9.3 8.7 10.0 10.8 11.0 10.8 13.3 17.4 19.9 19.6 11.6 9.8 9.3 7.7 8.3 7.5 10.1 13.0 13.3 13.3 11.4 11.8 11.5 11.3 8.0 7.3
9.7 9.8 10.2 10.4 11.5 11.4 11.3 9.5 8.0 11.1 17.1 21.0 25.0 29.4 36.0 30.1 24.2 19.1 15.1 12.1 10.4 9.9 9.1 8.2 7.8 7.7 7.4 6.7 6.6 6.3 6.1 6.8 7.6 8.2 9.2 8.9 8.4 7.6 6.9 6.3 6.2 7.4 9.7 11.2 11.0 13.4 14.5 12.5 10.1 8.9 8.1 8.1 9.7 13.0 14.1 13.6 13.4 11.9 12.5 12.5 10.8 10.7 9.7
8.6 9.1 9.2 8.9 9.7 10.9 10.8 8.5 7.9 12.2 17.1 19.7 25.0 32.0 31.7 29.8 23.6 18.9 14.8 11.8 9.8 8.9 7.9 7.3 7.7 8.5 8.5 7.6 7.0 6.1 9.2 8.5 9.3 11.7 12.5 11.3 8.8 7.1 6.0 5.6 4.8 7.3 9.3 8.7 11.6 13.0 12.9 12.6 12.4 15.2 15.9 15.8 16.3 16.3 15.2 14.1 13.9 14.2 16.1 18.2 19.2 16.5 9.8
6.8 7.2 8.1 8.4 8.6 9.1 8.5 7.8 7.7 9.7 15.3 17.7 23.1 34.0 36.6 32.0 24.3 18.5 14.9 11.4 9.5 8.7 7.9 7.2 7.2 7.7 8.4 7.8 7.0 6.5 10.6 13.2 15.2 18.1 17.7 15.8 12.8 9.7 8.3 6.8 4.5 7.6 15.1 22.5 28.3 32.6 28.6 26.9 27.4 29.5 32.9 32.2 30.7 22.6 21.7 24.7 27.6 24.4 16.7 18.5 20.3 14.5 9.3
7.1 7.1 7.4 8.3 8.4 8.3 8.7 7.9 6.9 8.4 12.6 16.2 21.3 30.7 34.0 32.0 27.6 20.8 16.0 13.2 10.9 9.8 9.1 7.4 7.4 7.4 8.1 8.2 7.1 9.2 12.7 17.9 19.6 26.0 23.6 21.0 18.3 14.9 12.0 7.7 4.4 3.7 4.4 11.0 18.3 22.8 24.3 27.4 24.6 23.5 23.8 26.5 25.8 24.3 18.1 26.0 32.4 20.5 13.3 15.8 14.6 14.4 8.4
7.3 7.1 7.1 7.2 7.3 7.2 8.3 8.2 7.0 7.0 10.9 14.3 21.8 27.4 30.8 30.4 26.4 23.0 17.4 14.5 12.9 10.2 8.6 7.3 6.3 7.1 8.6 8.4 8.7 14.3 18.1 25.9 22.5 26.6 24.2 19.2 18.0 17.9 15.2 9.7 6.2 5.2 5.2 5.2 6.5 7.7 8.6 10.3 12.7 11.9 12.4 11.3 12.4 14.3 16.9 17.9 20.5 17.2 16.9 18.6 14.7 12.4 10.9
6.2 6.4 6.4 6.5 7.6 8.2 8.1 8.2 7.5 7.4 8.1 15.8 23.1 24.5 26.3 27.7 26.6 24.5 19.9 16.8 14.5 14.0 12.0 9.3 8.1 6.8 7.2 11.6 17.1 17.4 23.2 25.0 32.4 29.5 29.8 24.4 23.9 21.6 15.7 8.5 6.7 6.6 7.0 7.0 6.7 6.2 5.4 6.4 6.7 8.4 10.2 10.2 9.6 9.0 10.2 12.7 12.1 13.6 15.3 16.6 15.3 12.6 11.5
6.0 6.6 7.0 6.8 7.2 8.1 8.3 8.2 8.0 7.0 8.4 16.4 19.8 18.8 26.9 27.4 23.7 19.3 17.7 17.5 16.8 14.0 12.0 10.2 8.6 7.3 6.0 7.4 11.8 16.1 22.1 25.1 32.5 35.3 30.2 28.3 25.7 19.2 13.9 11.6 13.7 11.2 8.2 8.9 8.0 6.8 6.0 5.8 6.2 7.7 9.6 10.8 10.0 9.3 9.1 10.3 8.3 8.6 8.7 11.9 14.5 14.5 13.1
6.8 6.9 6.3 5.9 6.3 7.5 7.8 7.3 6.9 7.6 8.1 13.3 17.6 19.0 21.9 23.9 22.2 17.2 19.2 20.9 16.3 12.0 9.9 8.0 7.2 7.2 6.4 6.6 10.5 17.6 25.9 30.1 34.1 36.5 27.3 24.7 27.7 28.5 24.6 16.3 13.6 11.4 10.3 9.2 8.5 8.0 7.6 7.0 6.8 7.4 8.0 10.3 10.8 9.8 9.3 9.2 8.3 7.0 6.1 5.6 6.4 8.9 11.3
7.0 6.9 6.5 6.4 6.8 7.1 7.1 6.9 6.7 7.5 7.4 9.1 13.6 16.0 18.7 21.9 24.6 22.0 18.2 18.8 17.4 12.9 9.7 7.7 7.4 6.8 6.9 9.2 18.3 24.5 30.3 30.7 31.3 27.5 27.0 27.7 25.9 25.0 21.3 19.8 20.3 17.4 15.5 12.9 10.7 9.7 10.4 8.7 6.9 7.3 7.1 7.0 9.0 9.1 7.7 8.2 7.7 7.3 6.8 6.9 5.9 5.5 5.9
7.3 6.8 7.2 7.6 7.4 7.0 6.5 6.4 7.0 6.6 5.9 6.6 9.2 14.0 18.9 19.3 22.6 22.3 18.9 16.8 15.1 12.1 10.6 9.6 8.9 10.1 12.8 19.9 20.8 22.7 25.8 27.5 24.2 23.5 26.6 25.8 22.6 16.9 16.8 20.2 22.5 22.1 20.8 17.1 14.2 12.8 10.6 8.6 6.1 5.8 5.5 6.0 5.5 7.5 8.8 8.6 8.8 7.8 7.3 7.3 6.5 5.5 5.3
6.8 7.5 7.4 7.3 7.3 7.3 6.9 6.7 7.0 6.3 5.8 5.8 6.6 9.0 11.8 14.6 17.3 16.3 14.1 14.0 11.7 10.9 11.0 10.0 11.5 14.6 16.6 18.1 19.5 20.1 18.2 17.4 15.4 15.7 19.4 17.0 16.9 17.4 17.7 19.5 18.6 17.4 17.8 20.6 19.2 14.3 10.0 6.8 5.2 4.5 4.4 4.4 5.5 6.8 9.3 10.9 10.9 10.4 8.7 8.2 7.6 7.1 5.8
7.8 7.5 7.1 7.4 7.0 7.4 7.8 8.1 6.9 6.1 6.2 6.5 7.0 7.6 8.1 10.0 10.4 10.8 10.4 11.2 10.3 8.0 7.3 7.9 11.0 8.8 8.9 9.7 10.5 12.4 14.9 18.6 13.9 11.5 11.0 12.0 13.7 15.2 17.6 18.1 16.2 13.8 14.1 14.7 12.4 11.4 10.3 7.6 5.6 5.7 5.9 5.8 6.6 8.2 9.6 10.9 12.4 13.3 12.5 10.8 10.7 10.1 9.4
8.4 8.8 9.0 9.1 8.5 8.7 8.7 8.3 6.5 6.2 6.9 8.5 10.2 10.5 9.8 9.7 10.0 9.9 9.1 9.6 10.5 9.4 8.1 7.4 7.9 8.3 8.7 8.9 8.8 10.8 12.4 11.7 9.6 9.9 12.8 11.7 11.1 14.5 15.6 18.9 13.9 11.6 11.8 10.5 9.6 9.5 8.2 7.7 8.2 8.0 9.7 10.2 9.3 9.4 8.5 8.4 9.7 12.0 12.2 10.5 10.1 10.0 10.3
13.2 14.2 14.5 15.3 13.3 12.7 10.5 8.7 7.3 7.2 9.4 13.8 14.4 13.7 11.9 11.3 11.6 12.7 12.8 10.5 10.0 10.1 9.4 10.0 9.4 9.6 9.7 11.0 11.9 12.1 12.4 12.2 11.8 10.6 9.7 9.6 10.7 12.1 13.1 14.2 13.4 12.7 13.3 12.1 11.6 12.0 11.1 12.0 11.9 13.2 11.9 10.3 9.6 8.0 7.1 7.4 8.9 9.5 11.6 12.5 12.3 15.2 14.0
22.9 21.0 21.2 18.9 17.6 18.4 16.8 13.6 13.0 11.2 12.0 15.8 15.7 16.7 17.3 17.6 16.0 14.7 14.6 11.7 11.2 13.3 12.9 11.4 11.3 11.0 10.4 9.8 9.7 10.1 10.4 10.0 9.6 9.1 9.4 10.8 11.4 10.8 11.1 11.4 13.4 15.1 13.1 11.5 12.8 14.4 14.3 14.0 13.5 12.4 10.8 10.9 10.9 9.2 7.8 7.7 9.5 10.0 10.5 12.4 14.9 16.9 13.6
28.0 27.1 25.8 24.2 18.0 17.2 21.7 20.8 16.2 13.2 18.5 20.7 21.2 24.1 20.6 19.3 21.0 18.4 16.4 13.6 12.5 12.3 13.1 11.7 10.4 9.5 9.2 8.6 8.1 8.3 8.1 7.9 8.1 8.5 8.7 9.6 10.4 10.4 10.8 11.3 12.1 12.7 12.2 11.4 12.6 13.0 14.0 13.3 12.6 11.4 10.7 11.0 11.0 10.2 8.9 8.3 10.1 11.5 11.5 14.2 16.8 17.2 14.9
24.3 25.9 21.3 21.7 25.0 19.9 13.6 12.2 11.3 11.5 18.2 21.6 26.3 26.2 23.2 24.4 21.5 20.8 19.5 16.2 15.8 14.5 12.3 11.0 9.7 8.9 8.0 7.5 7.3 7.6 7.3 7.4 7.9 7.9 8.1 8.7 9.2 9.5 10.1 10.7 11.0 12.0 11.8 11.7 12.2 12.6 13.4 12.6 12.2 11.2 9.7 9.9 8.9 8.9 9.6 10.5 11.4 11.2 12.7 13.6 13.3 14.0 12.4
19.6 21.5 23.9 20.7 21.4 24.3 21.5 15.7 14.1 14.6 22.0 25.6 29.0 29.7 25.1 23.9 24.4 22.8 19.9 16.4 16.1 16.8 13.0 10.2 9.0 8.7 8.2 7.5 7.7 6.9 6.5 7.3 8.3 8.6 8.9 8.6 7.9 7.2 7.2 8.3 9.7 10.7 11.2 11.1 11.2 11.2 12.0 12.9 12.8 12.0 10.7 9.5 8.9 9.0 9.3 10.2 12.1 13.3 15.5 14.6 13.2 12.5 11.1
11.3 13.4 16.0 17.0 20.1 22.2 23.6 20.1 18.8 18.7 22.7 24.9 26.6 25.0 20.0 19.4 18.9 15.9 14.9 13.0 12.8 12.5 11.3 9.8 9.2 9.0 8.4 8.2 8.0 7.5 7.7 8.1 8.9 8.2 7.8 7.6 7.9 7.0 6.0 6.2 6.5 7.8 9.2 9.9 10.2 10.6 11.0 12.5 11.8 12.4 12.0 11.7 10.2 10.1 10.0 8.8 9.3 9.4 10.1 11.7 13.4 12.2 11.1
7.9 7.7 8.2 8.6 10.7 13.3 15.1 14.1 14.2 14.3 14.2 16.2 18.3 17.8 18.0 19.1 16.4 12.8 14.2 13.6 13.6 12.1 11.1 9.2 8.9 8.5 8.7 8.7 8.8 9.0 9.0 9.2 9.2 7.8 7.3 6.5 6.1 6.2 6.0 5.3 5.5 6.6 7.7 8.3 9.0 9.8 9.6 10.3 10.9 12.1 13.0 13.5 11.9 10.6 9.7 10.0 9.0 8.7 10.6 11.7 11.1 10.4 9.7
7.3 6.1 6.7 8.8 8.9 10.2 11.2 10.2 10.0 11.6 13.9 15.8 16.6 16.9 19.6 16.2 15.3 15.7 12.5 9.8 10.2 10.8 10.5 9.8 8.9 8.7 8.2 8.2 8.7 8.8 9.0 9.0 9.0 8.1 7.6 7.2 6.5 5.7 5.7 6.2 5.9 5.8 6.2 6.6 7.3 8.1 8.6 8.8 10.0 10.5 10.5 11.0 11.3 11.4 11.6 10.3 9.7 9.5 9.3 9.8 10.1 9.6 9.2
7.9 7.1 6.5 7.6 7.4 7.7 9.7 10.2 9.7 10.4 13.3 17.6 17.6 17.8 16.7 18.9 15.9 12.6 10.9 9.6 8.8 9.4 9.9 9.8 10.0 9.8 9.6 9.9 10.3 10.3 9.8 9.4 9.5 9.4 9.2 8.5 8.0 7.2 6.7 6.8 6.7 6.4 6.2 6.0 6.1 6.7 7.2 7.8 8.7 9.7 10.8 10.6 10.3 9.8 9.1 8.5 8.3 8.3 8.5 9.0 9.3 10.1 9.6